Simultaneous Nadir Overpasses (SNOs) Predictions

Prediction of SNOs between GOES-15 and LANDSAT-8 Satellite Orbit:

Table of predicted SNOs for the next 14.0 days since TLE Epoch: 9/28/2024
Index Date Time (GOES-15) GOES-15 Lat,Lon LANDSAT-8 Lat,Lon Distance(km) Time Diff (sec)
1 09/28/2024 05:52:59 -0.31, 61.22 -1.08, 64.99 427.47 80
2 09/28/2024 18:14:23 0.32, 61.35 0.01, 59.79 176.71 80
3 09/30/2024 17:59:28 0.31, 61.35 0.60, 62.77 161.96 80
4 10/01/2024 06:20:43 -0.32, 61.22 0.47, 57.62 410.25 80
5 10/03/2024 06:08:28 -0.32, 61.21 -0.17, 60.59 71.40 80
6 10/05/2024 05:58:53 -0.32, 61.21 -0.84, 63.56 267.21 80
7 10/05/2024 18:20:15 0.32, 61.33 -0.31, 58.38 335.84 80
8 10/07/2024 18:07:59 0.32, 61.34 0.35, 61.36 3.72 80
9 10/09/2024 17:53:01 0.31, 61.36 0.93, 64.35 339.44 80
10 10/10/2024 06:14:15 -0.31, 61.25 0.11, 59.19 234.14 80
